星链-11521 (STARLINK-11521)

导读

STARLINK-11521是美国SpaceX公司星链(Starlink)星座中的一颗低轨道互联网通信卫星,于2025年1月13日发射升空。作为星链全球宽带网络的组成部分,它运行在约550公里近地轨道,采用星间激光链路技术,可为全球偏远地区、海上等传统网络覆盖不足区域提供高速低延迟的宽带互联网接入服务,推动全球网络覆盖进一步完善。

Basic Information
目录编号:
62597
目录名称:
STARLINK-11521
国际标识:
2025-008L
轨道中心:
EARTH
卫星名称:
星链-11521
卫星全名:
星链-11521 (STARLINK-11521)
卫星状态:
在轨 (已飞行600 天)
发射日期:
2025-01-13 UTC
国别 :
美国 (US)
星等 :
--
Orbit Information
数据来源 国际轨道数据
星历时间: 2026-09-04T10:07:35+0800
1天前
查看轨道信息
半长轴: 6734.618km
偏心率: 0.0001097
轨道倾角: 42.999°
近地点辐角 311.812°
升交点赤经 130.665°
平近点角 48.265°
近地点: 355.742km
远地点: 357.22km
周期: 91.670分钟
每日圈数: 15.708451
Detailed Information
固有亮度:
5
最大亮度:
2.5
卫星平台:
Starlink V1.0
覆盖范围:
全球
运营商:
太空探索技术公司
运营商所在国:
美国
制造商(研发单位):
太空探索技术公司
制造商所在国:
美国
使用方式:
暂无
Satellite Introduction
Starlink 计划是 SpaceX 推出的全球卫星互联网项目,通过发射低轨道卫星,为全球尤其是偏远地区提供高速、低延迟的互联网服务。自 2019 年起,Starlink 已部署数千颗卫星,旨在缩小全球数字鸿沟,推动互联网普及。该项目还为军事、航空等行业提供通信支持,带来广泛经济效益。
2D Orbit Map
3D Orbit Map
Orbit Altitude Analysis Chart
Orbit Inclination Analysis Chart
Orbit Comprehensive Analysis Chart
View Comprehensive Chart
Conjunction Data List
Event ID Objects TCA Miss Dist (km) Collision Risk Probability Collision Risk Index (CRI) Action
CDM_260907-055406-227306-259721
2026-09-07T
05:54:12+0000
0.691 km
远距离
4.832277E-5 中风险 0.69
CDM_260829-182104-638406-259721
2026-08-29T
18:21:01+0000
2.876 km
极远距离
8.352549E-7 极低风险 0.33